Weather History for Laramie, WY

Change the Weather History Date:

Sunday, August 10, 2014

  Actual Average Record
Temperature  
Mean Temperature 59 °F 64 °F  
Max Temperature 75 °F 79 °F 90 °F (1969)
Min Temperature 43 °F 48 °F 33 °F (1985)
Degree Days  
Heating Degree Days 6 2  
Month to date heating degree days 36 20  
Since 1 June heating degree days 333 330  
Since 1 July heating degree days 91 89  
Cooling Degree Days 0 1  
Month to date cooling degree days 0 10  
Year to date cooling degree days 65 57  
Since 1 June cooling degree days 65 57  
Growing Degree Days 9 (Base 50)    
Moisture  
Dew Point 43 °F    
Average Humidity 64    
Maximum Humidity 100    
Minimum Humidity 27    
Precipitation  
Precipitation 0.00 in 0.05 in 0.46 in (1997)
Month to date precipitation 0.26 0.47  
Year to date precipitation 9.42 7.39  
Sea Level Pressure  
Sea Level Pressure 30.16 in    
Wind  
Wind Speed 6 mph (ESE)    
Max Wind Speed 15 mph    
Max Gust Speed 20 mph    
Visibility 10 miles    
Events      
T = Trace of Precipitation, MM = Missing Value Source: NWS Daily Summary

Daily Weather History Graph

Daily Weather History Graph

Search for Another Location

Airport:

Trip Planner

Search our weather history database for the weather conditions in past years. The results will help you decide how hot, cold, wet, or windy it might be!

Date:

Astronomy

Aug. 10, 2014 Rise Set
Actual Time 6:06 AM MDT 8:08 PM MDT
Civil Twilight 5:36 AM MDT 8:38 PM MDT
Nautical Twilight 4:59 AM MDT 9:15 PM MDT
Astronomical Twilight 4:19 AM MDT 9:55 PM MDT
Moon 7:56 PM MDT (8/10) 6:02 AM MDT (8/10)
Length of Visible Light 15h 01m
Length of Day
14h 01m
Full, 100% of the Moon is Illuminated
Aug 10
Full
Aug 10
Full
Aug 17
Last Quarter
Aug 25
New
Sep 2
First Quarter

Hourly Weather History & Observations

Time (MDT) Temp. Windchill Dew Point Humidity Pressure Visibility Wind Dir Wind Speed Gust Speed Precip Events Conditions
12:53 AM 52.0 °F - 48.0 °F 86% 30.13 in 10.0 mi Calm Calm - N/A   Clear
1:53 AM 48.9 °F - 46.0 °F 90% 30.13 in 10.0 mi South 5.8 mph - N/A   Clear
3:53 AM 46.9 °F - 44.1 °F 90% 30.15 in 10.0 mi SW 3.5 mph - N/A   Clear
4:53 AM 46.0 °F 43.9 °F 44.1 °F 93% 30.14 in 10.0 mi West 4.6 mph - N/A   Clear
6:53 AM 45.0 °F 42.6 °F 44.1 °F 97% 30.20 in 10.0 mi East 4.6 mph - N/A   Clear
8:53 AM 55.9 °F - 50.0 °F 80% 30.21 in 10.0 mi Calm Calm - N/A   Clear
9:53 AM 61.0 °F - 46.9 °F 60% 30.19 in 10.0 mi Calm Calm - N/A   Clear
10:53 AM 64.9 °F - 46.9 °F 52% 30.18 in 10.0 mi NNE 4.6 mph - N/A   Clear
11:53 AM 68.0 °F - 41.0 °F 37% 30.18 in 10.0 mi East 4.6 mph - N/A   Clear
12:53 PM 69.1 °F - 39.9 °F 35% 30.17 in 10.0 mi Variable 3.5 mph - N/A   Clear
1:53 PM 73.0 °F - 37.9 °F 28% 30.15 in 10.0 mi NE 5.8 mph - N/A   Clear
2:53 PM 71.1 °F - 37.9 °F 30% 30.14 in 10.0 mi North - - N/A   Clear
3:53 PM 71.1 °F - 37.0 °F 29% 30.15 in 10.0 mi North 5.8 mph - N/A   Partly Cloudy
4:53 PM 73.9 °F - 37.0 °F 26% 30.13 in 10.0 mi Variable 4.6 mph - N/A   Scattered Clouds
6:53 PM 70.0 °F - 41.0 °F 35% 30.15 in 10.0 mi East 13.8 mph - N/A   Overcast
7:53 PM 64.9 °F - 39.9 °F 40% 30.17 in 10.0 mi ESE 9.2 mph - N/A   Mostly Cloudy
8:53 PM 59.0 °F - 39.9 °F 49% 30.17 in 10.0 mi ESE 9.2 mph - N/A   Clear
9:53 PM 55.9 °F - 42.1 °F 60% 30.19 in 10.0 mi ESE 6.9 mph - N/A   Clear
10:53 PM 57.0 °F - 43.0 °F 59% 30.18 in 10.0 mi SE 4.6 mph - N/A   Clear
11:53 PM 55.0 °F - 44.1 °F 67% 30.17 in 10.0 mi SSE 3.5 mph - N/A   Clear